CW7235 Weather Reports


Display with metric or nautical units.
time (UTC)temp
F
wind
direction
speed
MPH
gust
MPH
rain 1hr
in
rain 24hr
in
rain mn
in
humidity
%
barometer
mb
20260505113005 52 203 0.0 0.0 0.00 0.00 0.00 91 1017.6
20260505101505 51 203 0.0 1.0 0.00 0.00 0.00 89 1017.0
20260505100005 51 204 0.0 0.0 0.00 0.00 0.00 89 1016.8
20260505094505 51 204 0.0 0.0 0.00 0.00 0.00 89 1016.9
20260505091505 52 204 0.0 0.0 0.00 0.00 0.00 88 1016.7
20260505084505 53 204 0.0 0.0 0.00 0.00 0.00 87 1016.4
20260505083006 53 204 0.0 0.0 0.00 0.00 0.00 87 1016.2
20260505081505 53 204 0.0 0.0 0.00 0.00 0.00 87 1016.2
20260505080006 54 204 0.0 0.0 0.00 0.00 0.00 86 1016.0
20260505074504 54 204 0.0 0.0 0.00 0.00 0.00 85 1016.1
20260505071505 55 204 0.0 0.0 0.00 0.00 0.00 84 1016.1
20260505070005 55 204 0.0 0.0 0.00 0.00 0.00 83 1016.1
20260505063004 56 204 0.0 0.0 0.00 0.00 0.00 82 1016.3
20260505061506 57 204 0.0 0.0 0.00 0.00 0.00 81 1016.4
20260505060005 57 204 0.0 0.0 0.00 0.00 0.00 81 1016.7
20260505054506 58 204 0.0 1.0 0.00 0.00 0.00 80 1016.7
20260505051505 59 204 0.0 2.0 0.00 0.00 0.00 78 1016.9
20260505041505 61 198 0.0 2.0 0.00 0.00 0.00 74 1017.0
20260505040009 62 193 0.0 2.0 0.00 0.00 0.00 73 1017.0
20260505033006 63 189 1.0 3.0 0.00 0.00 0.00 71 1016.9
20260505031506 63 192 0.0 3.0 0.00 0.00 0.00 70 1017.0
20260505024505 65 205 0.0 4.0 0.00 0.00 0.00 67 1016.9
20260505023006 65 187 0.0 2.0 0.00 0.00 0.00 65 1016.7
20260505021505 66 183 1.0 3.0 0.00 0.00 0.00 64 1016.6
20260505020007 67 180 0.0 4.0 0.00 0.00 0.00 63 1016.6
20260505014505 67 210 1.0 7.0 0.00 0.00 0.00 61 1016.6
20260505013005 68 268 2.0 9.0 0.00 0.00 0.00 60 1016.3
20260505011505 68 220 2.0 9.0 0.00 0.00 0.00 59 1016.2
20260505010007 69 219 2.0 9.0 0.00 0.00 0.00 57 1016.0
20260505004505 70 109 3.0 8.0 0.00 0.00 0.00 56 1015.6
20260505003006 71 160 2.0 9.0 0.00 0.00 0.00 56 1015.3
20260505001505 72 210 3.0 10.0 0.00 0.00 0.00 55 1015.3
20260505000007 73 193 2.0 8.0 0.00 0.00 0.00 53 1015.0
20260504234505 74 135 1.0 10.0 0.00 0.00 0.00 48 1014.8
20260504231505 75 32 2.0 7.0 0.00 0.00 0.00 42 1014.7
20260504230007 76 205 2.0 8.0 0.00 0.00 0.00 41 1014.7
20260504224504 77 213 3.0 10.0 0.00 0.00 0.00 40 1014.9
20260504223005 78 217 3.0 8.0 0.00 0.00 0.00 39 1014.9
20260504220005 79 180 3.0 10.0 0.00 0.00 0.00 38 1014.9
20260504214503 79 182 3.0 11.0 0.00 0.00 0.00 36 1014.9
20260504213006 79 167 3.0 10.0 0.00 0.00 0.00 37 1014.9
20260504210006 79 181 2.0 10.0 0.00 0.00 0.00 37 1014.9
20260504204505 79 161 4.0 10.0 0.00 0.00 0.00 36 1015.0
20260504203005 79 171 2.0 8.0 0.00 0.00 0.00 36 1015.0
20260504201505 79 210 3.0 12.0 0.00 0.00 0.00 37 1015.3
20260504200006 80 234 4.0 15.0 0.00 0.00 0.00 37 1015.1
20260504194505 80 205 3.0 12.0 0.00 0.00 0.00 38 1015.4
20260504193007 80 134 3.0 10.0 0.00 0.00 0.00 38 1015.6
20260504191505 79 184 3.0 10.0 0.00 0.00 0.00 38 1015.8
20260504184505 79 216 1.0 9.0 0.00 0.00 0.00 38 1016.4
20260504183004 78 265 3.0 10.0 0.00 0.00 0.00 38 1016.5
20260504181506 78 157 3.0 11.0 0.00 0.00 0.00 37 1016.8
20260504180006 77 319 2.0 8.0 0.00 0.00 0.00 38 1016.7
20260504174505 76 121 2.0 7.0 0.00 0.00 0.00 40 1016.8
20260504171504 76 223 3.0 8.0 0.00 0.00 0.00 41 1017.1